Temp
-5 -4 -4 -4 -4 -3 -5 -4 -5 -4 -5 -6 -6 -5 -5 -5 -5 -5 -5 -5 -6 -6 -6 -6 -7 -6 -7 -7 -7 -7 -7 -7 -7 -7 -7 -8 -8 -8 -8 -7 -7 -8 -8 -8 -8 -8 -8 -8 -8
-4 -4 -4 -4 -4 -5 -5 -5 -4 -5 -4 -5 -6 -5 -5 -5 -5 -5 -5 -5 -6 -6 -6 -6 -6 -7 -7 -7 -7 -7 -7 -7 -7 -7 -7 -7 -7 -7 -7 -7 -8 -8 -8 -8 -8 -8 -8 -8 -8
-4 -4 -4 -4 -4 -4 -4 -4 -5 -4 -5 -6 -5 -5 -6 -5 -5 -5 -5 -5 -6 -6 -6 -6 -6 -7 -7 -7 -7 -7 -7 -7 -7 -7 -7 -7 -7 -7 -7 -8 -8 -7 -8 -8 -8 -8 -8 -8 -8
-5 -4 -4 -5 -4 -4 -4 -4 -4 -5 -5 -5 -5 -5 -5 -5 -5 -6 -5 -5 -6 -6 -6 -6 -6 -6 -7 -7 -7 -7 -7 -7 -7 -7 -7 -7 -7 -7 -8 -8 -8 -7 -7 -7 -8 -8 -8 -9 -8
-4 -4 -4 -5 -5 -4 -5 -4 -4 -4 -6 -6 -6 -5 -5 -5 -5 -6 -5 -5 -6 -6 -6 -6 -6 -6 -7 -7 -7 -7 -7 -7 -7 -7 -7 -7 -7 -7 -7 -7 -7 -7 -7 -7 -8 -8 -8 -8 -7
-5 -4 -5 -4 -5 -5 -5 -4 -5 -5 -5 -6 -6 -6 -5 -5 -6 -6 -5 -5 -5 -6 -6 -6 -6 -6 -7 -7 -7 -7 -7 -7 -7 -7 -6 -7 -7 -7 -7 -7 -7 -7 -7 -7 -7 -8 -8 -7 -7
-5 -5 -4 -4 -4 -4 -4 -4 -4 -5 -5 -6 -6 -6 -5 -5 -5 -5 -5 -5 -5 -6 -6 -6 -6 -6 -6 -6 -7 -7 -7 -7 -6 -6 -7 -7 -7 -7 -7 -7 -7 -7 -7 -7 -7 -7 -7 -7 -7
-5 -5 -5 -4 -4 -4 -5 -5 -5 -5 -5 -5 -6 -6 -6 -5 -5 -5 -5 -5 -5 -6 -6 -7 -6 -7 -7 -7 -7 -7 -7 -6 -6 -7 -7 -7 -7 -7 -7 -7 -7 -7 -7 -7 -7 -7 -7 -7 -7
-5 -5 -4 -4 -5 -5 -5 -5 -5 -5 -5 -5 -6 -6 -6 -5 -6 -6 -5 -5 -5 -6 -6 -7 -7 -7 -7 -7 -7 -7 -7 -6 -7 -7 -7 -7 -7 -7 -7 -7 -7 -7 -7 -7 -7 -7 -7 -7 -7
-5 -5 -4 -5 -5 -5 -5 -5 -5 -6 -6 -5 -6 -6 -6 -5 -6 -6 -6 -5 -5 -6 -6 -6 -6 -7 -7 -7 -7 -7 -7 -7 -7 -7 -7 -7 -7 -7 -7 -7 -6 -7 -7 -7 -7 -7 -7 -7 -7
-6 -5 -5 -6 -5 -5 -6 -6 -6 -7 -7 -7 -6 -6 -6 -6 -6 -5 -5 -6 -5 -6 -6 -6 -6 -6 -7 -7 -7 -7 -7 -7 -7 -7 -7 -7 -7 -7 -6 -6 -6 -6 -7 -7 -7 -7 -7 -7 -7
-5 -6 -7 -6 -5 -5 -6 -6 -6 -7 -6 -7 -6 -6 -6 -6 -6 -7 -5 -5 -5 -5 -5 -6 -6 -6 -6 -6 -7 -7 -7 -7 -7 -7 -7 -6 -7 -6 -6 -7 -6 -7 -6 -7 -7 -7 -7 -7 -7
-5 -6 -6 -5 -6 -5 -6 -6 -6 -7 -7 -7 -7 -7 -7 -7 -7 -6 -6 -5 -5 -5 -5 -6 -6 -6 -6 -6 -6 -7 -7 -7 -7 -6 -6 -6 -6 -6 -6 -6 -6 -6 -7 -6 -7 -7 -7 -6 -6
-6 -7 -6 -6 -6 -7 -7 -7 -6 -9 -8 -8 -8 -8 -7 -7 -6 -7 -7 -7 -6 -6 -5 -5 -6 -6 -6 -6 -6 -6 -7 -7 -7 -6 -6 -6 -6 -6 -6 -6 -6 -6 -6 -7 -7 -6 -6 -7 -6
-6 -6 -7 -7 -7 -8 -8 -9 -8 -8 -8 -8 -8 -8 -8 -8 -8 -7 -7 -7 -6 -6 -6 -6 -5 -6 -6 -6 -6 -6 -6 -7 -7 -7 -7 -6 -6 -6 -6 -6 -6 -6 -6 -6 -6 -7 -7 -6 -6
-6 -7 -8 -7 -8 -8 -8 -9 -8 -8 -8 -8 -8 -8 -8 -7 -7 -8 -7 -7 -7 -7 -6 -5 -5 -5 -6 -6 -7 -7 -6 -6 -7 -7 -7 -7 -6 -6 -6 -6 -6 -6 -6 -6 -6 -7 -7 -7 -7
-7 -8 -8 -8 -8 -8 -8 -8 -8 -8 -8 -8 -7 -7 -7 -7 -7 -8 -7 -7 -7 -7 -6 -6 -5 -6 -6 -6 -7 -6 -6 -6 -6 -7 -6 -7 -6 -6 -6 -6 -6 -6 -6 -6 -6 -6 -6 -7 -7
-7 -8 -9 -9 -9 -8 -9 -8 -8 -8 -8 -8 -7 -7 -7 -7 -7 -7 -7 -8 -7 -7 -7 -7 -6 -6 -6 -6 -6 -6 -6 -6 -6 -7 -7 -6 -6 -6 -6 -6 -6 -5 -6 -6 -6 -6 -6 -6 -6
-7 -8 -9 -9 -8 -9 -8 -7 -8 -7 -8 -8 -8 -7 -7 -8 -8 -8 -7 -7 -8 -8 -7 -7 -7 -6 -6 -6 -6 -6 -7 -6 -6 -6 -7 -7 -6 -7 -6 -6 -6 -6 -5 -6 -6 -6 -5 -6 -6
-8 -8 -8 -8 -8 -8 -9 -8 -9 -7 -7 -7 -8 -8 -8 -8 -8 -7 -7 -7 -7 -8 -8 -7 -7 -6 -7 -7 -6 -6 -7 -7 -7 -6 -7 -7 -7 -7 -7 -6 -6 -6 -6 -6 -6 -6 -5 -5 -6
-8 -8 -7 -8 -9 -9 -9 -9 -8 -7 -7 -8 -8 -8 -8 -8 -8 -7 -7 -8 -8 -8 -8 -7 -7 -6 -7 -7 -7 -7 -7 -7 -6 -6 -6 -7 -7 -7 -7 -7 -6 -6 -6 -6 -6 -6 -5 -5 -6
-9 -8 -8 -8 -8 -9 -9 -8 -7 -7 -7 -7 -8 -8 -8 -8 -8 -8 -8 -8 -8 -8 -9 -7 -7 -7 -7 -7 -7 -7 -6 -6 -6 -6 -7 -6 -6 -6 -7 -6 -6 -6 -6 -6 -5 -6 -6 -6 -6
-8 -8 -9 -9 -8 -8 -8 -8 -8 -7 -7 -7 -8 -8 -8 -8 -8 -8 -8 -8 -8 -8 -8 -8 -7 -7 -6 -7 -6 -7 -7 -6 -6 -6 -6 -6 -6 -6 -6 -7 -6 -6 -6 -6 -6 -5 -6 -6 -6
-8 -8 -9 -9 -8 -8 -8 -8 -8 -7 -7 -7 -7 -7 -7 -7 -8 -8 -8 -8 -8 -8 -8 -7 -7 -6 -6 -6 -6 -7 -7 -7 -6 -6 -6 -6 -6 -6 -6 -7 -7 -6 -6 -6 -6 -6 -5 -6 -6
-8 -8 -9 -9 -8 -8 -8 -7 -8 -8 -8 -8 -8 -8 -7 -7 -7 -7 -8 -8 -7 -7 -7 -7 -6 -6 -6 -5 -6 -6 -6 -7 -6 -6 -6 -6 -6 -6 -6 -6 -6 -6 -6 -6 -6 -6 -6 -6 -6
-8 -9 -9 -9 -8 -8 -7 -7 -7 -8 -8 -7 -7 -8 -7 -7 -7 -8 -8 -7 -7 -7 -8 -7 -6 -6 -5 -6 -6 -6 -5 -7 -6 -6 -6 -7 -7 -6 -7 -7 -7 -6 -6 -6 -7 -6 -6 -6 -6
-9 -9 -9 -9 -8 -8 -8 -8 -8 -8 -7 -7 -8 -8 -7 -8 -8 -8 -8 -7 -7 -7 -8 -8 -7 -6 -6 -7 -5 -6 -7 -7 -6 -6 -6 -6 -7 -7 -7 -7 -7 -7 -6 -6 -7 -7 -6 -6 -6
-8 -9 -9 -8 -9 -8 -8 -8 -8 -7 -7 -7 -8 -7 -8 -8 -9 -8 -8 -7 -7 -7 -7 -8 -8 -7 -7 -7 -7 -7 -7 -7 -7 -6 -7 -6 -7 -7 -7 -7 -7 -7 -7 -7 -7 -7 -6 -7 -7
-9 -9 -9 -9 -8 -8 -8 -8 -8 -8 -8 -8 -8 -8 -8 -8 -8 -8 -8 -8 -7 -7 -8 -8 -8 -7 -7 -7 -7 -7 -8 -7 -7 -7 -7 -7 -7 -7 -7 -7 -7 -7 -7 -6 -7 -7 -7 -7 -7
-9 -8 -8 -9 -9 -9 -8 -8 -8 -8 -7 -8 -8 -8 -8 -8 -8 -8 -8 -8 -8 -8 -8 -8 -8 -7 -7 -7 -7 -8 -8 -7 -7 -7 -8 -7 -7 -8 -7 -8 -8 -7 -7 -7 -7 -7 -7 -7 -7
Height
5911 5910 5912 5911 5913 5909 5908 5908 5908 5908 5907 5905 5905 5905 5906 5904 5905 5906 5903 5903 5902 5901 5903 5903 5904 5904 5904 5903 5903 5904 5905 5906 5907 5907 5908 5908 5909 5909 5908 5908 5907 5907 5906 5905 5905 5904 5903 5903 5904
5913 5912 5913 5912 5913 5912 5909 5909 5910 5910 5908 5906 5906 5906 5906 5905 5905 5904 5903 5903 5903 5902 5904 5905 5905 5905 5905 5905 5904 5904 5905 5907 5908 5908 5908 5909 5909 5909 5908 5908 5907 5906 5906 5905 5905 5905 5904 5904 5904
5915 5915 5915 5914 5914 5914 5912 5910 5911 5909 5909 5908 5907 5906 5906 5906 5905 5904 5904 5902 5903 5903 5904 5906 5906 5905 5906 5905 5905 5906 5906 5907 5908 5908 5909 5909 5909 5909 5909 5908 5907 5906 5906 5905 5905 5904 5903 5903 5903
5915 5917 5916 5914 5913 5914 5912 5912 5911 5909 5908 5907 5905 5906 5906 5907 5906 5905 5905 5903 5902 5902 5904 5905 5906 5906 5906 5906 5906 5906 5907 5907 5908 5908 5908 5908 5909 5909 5907 5907 5906 5906 5906 5906 5905 5904 5904 5902 5903
5914 5917 5916 5915 5912 5912 5911 5912 5911 5910 5908 5907 5905 5907 5907 5907 5907 5906 5907 5904 5903 5904 5904 5905 5905 5906 5907 5908 5907 5907 5907 5907 5908 5908 5907 5908 5909 5908 5907 5906 5905 5905 5906 5906 5904 5904 5904 5903 5904
5915 5915 5916 5915 5912 5911 5911 5911 5911 5910 5909 5909 5906 5906 5908 5907 5907 5907 5908 5906 5904 5905 5907 5906 5906 5906 5908 5909 5910 5908 5907 5906 5907 5908 5908 5908 5909 5908 5907 5906 5906 5906 5906 5906 5906 5904 5905 5905 5905
5915 5915 5913 5914 5913 5912 5913 5912 5912 5911 5911 5909 5907 5906 5906 5906 5907 5908 5909 5907 5906 5906 5907 5908 5907 5907 5909 5910 5911 5909 5908 5906 5906 5908 5909 5909 5909 5910 5909 5908 5908 5908 5907 5907 5906 5906 5906 5907 5907
5914 5914 5913 5914 5915 5915 5913 5913 5914 5912 5911 5910 5906 5905 5905 5907 5908 5909 5909 5908 5906 5907 5907 5908 5908 5908 5908 5910 5911 5910 5908 5907 5908 5908 5909 5910 5910 5911 5911 5910 5909 5909 5909 5908 5907 5907 5907 5907 5908
5913 5914 5915 5914 5914 5915 5914 5913 5912 5911 5910 5910 5908 5906 5906 5908 5909 5910 5910 5909 5907 5907 5907 5907 5908 5908 5909 5910 5911 5911 5910 5910 5909 5909 5909 5910 5911 5912 5912 5912 5911 5910 5910 5909 5908 5908 5908 5908 5909
5914 5915 5915 5915 5915 5914 5914 5913 5912 5912 5911 5909 5909 5907 5907 5907 5909 5910 5909 5908 5908 5907 5906 5906 5907 5908 5909 5910 5911 5911 5912 5912 5911 5911 5912 5912 5912 5912 5912 5912 5910 5911 5911 5910 5909 5910 5909 5909 5909
5914 5915 5915 5916 5916 5915 5914 5914 5913 5911 5910 5910 5909 5907 5906 5906 5906 5908 5908 5907 5907 5907 5906 5906 5906 5908 5908 5910 5911 5911 5912 5913 5913 5913 5914 5914 5913 5913 5912 5912 5912 5911 5911 5910 5911 5910 5910 5909 5910
5915 5914 5917 5917 5915 5915 5914 5914 5915 5913 5911 5909 5909 5907 5906 5905 5904 5906 5907 5906 5906 5906 5905 5905 5906 5907 5908 5910 5910 5911 5912 5913 5913 5914 5915 5915 5915 5914 5913 5913 5912 5911 5912 5911 5911 5910 5911 5911 5910
5916 5916 5917 5917 5917 5916 5916 5915 5914 5913 5913 5912 5909 5909 5907 5905 5903 5903 5905 5905 5906 5905 5905 5904 5905 5906 5907 5909 5910 5910 5912 5913 5913 5913 5915 5914 5914 5914 5913 5913 5913 5912 5912 5911 5911 5910 5911 5911 5912
5916 5916 5917 5917 5917 5916 5914 5914 5912 5913 5913 5913 5912 5910 5909 5905 5902 5902 5903 5904 5905 5905 5904 5904 5904 5906 5907 5908 5910 5909 5910 5912 5912 5913 5914 5914 5914 5915 5914 5913 5912 5911 5910 5908 5910 5910 5911 5911 5913
5916 5916 5916 5916 5916 5916 5914 5913 5910 5912 5913 5911 5910 5908 5906 5904 5900 5899 5899 5900 5900 5904 5902 5903 5904 5905 5907 5908 5909 5909 5909 5912 5911 5912 5913 5914 5914 5914 5913 5913 5913 5912 5910 5908 5910 5911 5912 5913 5913
5916 5916 5916 5916 5916 5916 5915 5913 5911 5911 5911 5910 5908 5904 5902 5900 5897 5895 5895 5896 5897 5899 5900 5901 5901 5903 5905 5906 5906 5907 5908 5910 5909 5910 5912 5912 5913 5913 5914 5913 5914 5912 5912 5912 5912 5913 5913 5913 5913
5916 5916 5916 5915 5914 5914 5914 5912 5910 5911 5910 5907 5906 5902 5899 5897 5895 5893 5890 5890 5891 5894 5896 5899 5900 5900 5902 5904 5905 5905 5907 5908 5908 5909 5910 5911 5912 5913 5913 5914 5913 5913 5912 5913 5914 5914 5914 5914 5913
5916 5916 5915 5914 5914 5912 5911 5911 5909 5909 5909 5905 5902 5900 5899 5897 5894 5893 5888 5887 5888 5889 5891 5894 5896 5896 5898 5900 5902 5903 5904 5906 5907 5907 5908 5910 5910 5911 5912 5913 5912 5913 5913 5914 5914 5915 5914 5913 5913
5915 5915 5914 5913 5913 5912 5911 5910 5909 5909 5909 5905 5900 5897 5895 5895 5894 5893 5890 5886 5885 5886 5888 5890 5891 5893 5894 5896 5899 5900 5901 5902 5904 5905 5907 5908 5908 5909 5910 5911 5912 5913 5914 5915 5915 5914 5913 5913 5913
5913 5913 5913 5913 5913 5912 5910 5908 5908 5909 5908 5904 5900 5897 5895 5895 5894 5891 5888 5887 5883 5884 5885 5887 5888 5888 5890 5893 5895 5897 5899 5900 5901 5903 5904 5905 5906 5907 5908 5910 5911 5912 5913 5913 5913 5913 5912 5912 5911
5911 5912 5913 5912 5913 5912 5910 5908 5907 5906 5904 5900 5897 5897 5895 5894 5891 5888 5886 5883 5880 5881 5882 5884 5886 5885 5886 5889 5891 5893 5897 5899 5899 5900 5902 5903 5904 5905 5906 5907 5910 5912 5912 5912 5912 5913 5912 5911 5910
5910 5911 5912 5912 5913 5912 5910 5908 5907 5907 5904 5900 5896 5893 5892 5891 5888 5885 5883 5884 5885 5882 5883 5882 5881 5880 5880 5881 5886 5889 5893 5896 5897 5898 5899 5900 5901 5902 5903 5904 5906 5909 5910 5910 5910 5911 5911 5910 5910
5909 5910 5911 5912 5912 5911 5910 5908 5907 5905 5903 5899 5895 5893 5889 5888 5887 5884 5883 5883 5884 5882 5879 5876 5873 5873 5866 5872 5877 5883 5887 5890 5893 5895 5896 5897 5898 5900 5900 5901 5903 5905 5907 5908 5909 5909 5910 5910 5908
5907 5909 5910 5911 5911 5912 5910 5909 5906 5904 5901 5898 5896 5892 5886 5887 5884 5883 5882 5882 5880 5878 5873 5869 5864 5865 5865 5864 5870 5875 5882 5885 5889 5892 5893 5894 5895 5896 5895 5897 5900 5902 5903 5904 5904 5906 5908 5908 5907
5905 5908 5909 5910 5910 5910 5908 5908 5908 5905 5903 5900 5897 5894 5890 5886 5883 5881 5881 5880 5877 5873 5868 5863 5858 5856 5853 5842 5861 5869 5873 5879 5885 5886 5888 5890 5892 5891 5889 5892 5895 5898 5900 5901 5902 5902 5904 5905 5905
5905 5907 5908 5909 5909 5909 5908 5907 5907 5906 5904 5901 5898 5893 5888 5885 5882 5881 5880 5879 5876 5870 5864 5858 5852 5850 5847 5850 5856 5866 5868 5873 5879 5882 5883 5886 5888 5888 5887 5887 5891 5894 5896 5898 5899 5900 5901 5903 5902
5904 5906 5907 5907 5908 5908 5907 5905 5905 5903 5903 5900 5896 5893 5889 5886 5883 5881 5878 5877 5875 5870 5864 5858 5850 5846 5839 5843 5851 5860 5867 5869 5875 5877 5880 5883 5885 5885 5885 5884 5887 5889 5891 5893 5896 5897 5899 5899 5898
5904 5905 5906 5906 5905 5905 5904 5903 5902 5902 5901 5898 5893 5889 5887 5884 5881 5879 5878 5876 5873 5870 5866 5860 5856 5852 5851 5852 5855 5858 5863 5868 5872 5874 5876 5877 5879 5882 5881 5880 5882 5885 5887 5889 5891 5893 5894 5895 5894
5903 5904 5904 5905 5905 5904 5902 5904 5901 5899 5898 5896 5893 5889 5886 5884 5883 5879 5876 5875 5871 5870 5868 5865 5861 5859 5856 5855 5857 5859 5861 5863 5868 5869 5872 5874 5875 5877 5876 5875 5878 5880 5883 5885 5887 5889 5889 5890 5892
5900 5900 5901 5901 5901 5900 5899 5901 5899 5897 5896 5895 5893 5889 5887 5885 5882 5879 5876 5873 5871 5868 5867 5866 5864 5862 5859 5858 5859 5858 5861 5862 5864 5866 5868 5869 5870 5871 5871 5871 5873 5875 5876 5878 5880 5882 5883 5885 5887
Wind_Speed
5 2 6 7 7 5 5 9 11 9 6 9 11 10 11 13 12 11 9 7 7 8 6 8 7 8 10 10 9 9 8 7 7 5 5 7 8 7 5 6 8 5 1 3 2 1 5 6 4
1 2 7 8 10 5 6 8 7 6 9 8 7 6 10 12 11 10 9 7 6 7 6 7 8 8 7 8 9 9 8 8 7 6 6 6 6 7 6 5 6 5 3 3 3 0 3 3 4
1 5 6 5 3 3 3 5 4 8 11 6 7 8 6 9 9 9 7 6 5 5 5 6 6 4 5 6 9 8 8 7 7 5 4 4 8 8 6 5 6 4 3 5 4 2 2 0 1
7 7 4 2 2 1 1 2 6 7 11 5 11 13 7 7 9 9 5 5 4 3 2 5 4 3 2 4 8 9 9 9 7 5 4 4 7 10 10 8 7 4 7 8 7 4 1 1 3
13 9 1 2 7 5 3 6 5 7 9 4 9 9 7 8 8 7 4 4 4 2 1 3 4 2 2 3 6 9 8 8 6 5 4 6 9 9 8 8 7 6 7 10 8 7 4 3 3
11 10 6 7 5 6 7 5 6 9 11 6 9 10 10 7 6 4 4 3 3 3 0 1 3 4 1 2 6 8 8 7 3 4 6 8 9 9 8 8 8 7 8 9 8 9 5 3 4
11 8 10 3 5 4 1 2 5 4 2 3 5 6 9 8 5 5 2 3 3 2 3 1 4 5 3 2 6 7 9 8 2 4 7 8 10 10 9 8 6 8 9 9 7 8 5 6 4
9 3 3 4 7 9 3 2 4 2 2 1 1 5 5 5 4 5 4 3 3 2 5 3 5 4 3 2 5 6 9 6 5 6 9 10 8 10 10 8 7 9 9 9 6 5 7 8 3
3 3 1 5 8 10 11 10 9 7 7 2 2 5 5 5 2 3 4 3 1 3 4 5 5 4 5 3 2 5 6 4 4 3 5 9 7 6 5 8 7 7 9 7 5 5 6 6 3
2 1 6 8 9 13 16 17 17 13 9 5 4 6 6 4 3 7 5 5 2 3 5 6 6 5 6 6 3 2 3 3 3 1 5 12 8 6 5 4 5 6 7 5 6 5 4 4 3
4 8 8 4 6 14 18 17 15 12 10 8 3 8 9 10 7 7 5 3 5 4 3 4 6 5 6 9 5 1 1 2 2 2 3 8 7 7 8 4 4 5 3 4 4 4 3 4 3
6 10 5 3 7 10 16 17 14 11 9 5 4 7 8 8 10 9 7 5 7 5 4 4 7 7 7 11 8 3 0 1 2 1 1 4 6 6 7 5 6 6 3 2 3 3 2 2 5
6 8 2 5 11 8 12 11 12 13 11 9 8 9 11 11 10 8 15 12 9 6 4 4 6 9 9 13 10 5 3 1 2 3 2 2 4 6 6 8 5 7 3 2 2 3 2 1 2
6 4 3 5 10 11 12 11 9 18 16 16 16 12 10 9 7 6 10 12 14 8 6 8 7 12 11 11 12 9 6 3 3 3 2 1 2 4 5 5 5 10 7 2 1 2 2 1 2
1 2 7 9 11 12 12 14 13 16 17 19 19 9 8 6 10 10 9 11 12 13 13 13 10 13 11 10 11 11 8 6 3 3 3 1 1 2 4 5 6 9 11 3 5 3 1 1 1
2 5 4 6 7 8 8 9 13 16 18 17 16 12 7 9 7 9 9 11 12 12 16 16 13 12 14 12 13 13 12 10 6 3 2 1 0 1 3 3 4 4 5 8 3 2 2 1 1
3 5 7 6 7 7 9 8 12 15 13 17 16 16 8 11 4 2 12 12 14 15 15 17 15 13 15 15 16 14 13 12 9 6 4 3 2 3 4 1 4 2 3 4 3 3 2 1 2
5 6 6 7 6 5 10 10 10 13 14 15 20 17 15 12 8 10 8 14 12 13 14 14 18 16 17 15 16 15 14 13 12 8 8 6 5 5 7 4 1 3 1 3 4 2 5 2 1
7 9 10 9 8 8 11 7 12 11 15 16 18 19 20 20 16 13 16 9 11 11 12 15 16 17 17 18 15 14 15 13 15 12 12 11 9 8 8 8 4 4 3 3 4 2 3 4 4
8 11 13 7 9 9 8 8 13 13 18 17 15 16 18 18 17 19 23 10 5 10 14 16 19 16 18 19 18 18 17 16 16 15 15 15 12 12 11 12 9 8 6 5 5 5 2 3 4
10 14 9 2 7 4 8 9 11 14 19 20 12 11 12 16 15 18 18 9 10 14 16 18 21 20 19 22 21 20 18 19 17 15 14 14 15 16 14 15 14 13 11 9 7 6 4 4 4
14 11 2 3 1 3 6 10 10 12 16 16 17 12 4 11 12 11 14 11 10 16 16 19 23 23 24 24 23 23 21 18 15 16 17 17 18 18 21 17 19 17 13 11 9 8 5 6 5
14 8 6 3 5 1 8 8 12 10 12 14 15 11 7 4 5 6 11 9 12 15 19 26 28 31 33 29 25 25 22 19 17 19 20 16 16 15 19 19 21 19 15 13 11 9 8 8 6
10 7 11 8 7 0 5 9 9 16 15 19 25 29 18 6 5 5 7 8 10 13 18 26 20 32 34 33 29 27 24 20 21 21 18 16 15 18 20 20 22 21 18 15 13 12 11 9 9
10 12 13 10 7 6 7 7 9 13 13 19 24 29 19 7 12 11 11 11 11 13 16 19 22 24 39 36 38 29 26 23 24 22 18 17 16 17 17 22 21 23 20 17 16 15 14 12 10
10 18 15 12 9 11 14 16 11 9 11 17 23 22 9 8 12 17 13 16 15 17 18 22 17 18 27 37 37 30 31 27 27 23 20 17 16 15 12 22 23 24 23 22 20 20 17 14 12
17 14 14 15 15 17 17 17 15 17 19 20 23 16 14 11 15 17 16 15 15 17 18 19 6 11 13 24 29 37 31 26 26 21 19 17 18 16 14 20 22 24 24 24 23 21 20 16 14
13 18 13 13 11 12 14 17 23 22 22 24 25 16 12 13 14 15 15 15 14 16 16 17 12 11 10 7 18 22 25 26 20 20 21 21 19 21 18 21 22 25 26 26 23 22 20 18 17
14 11 12 14 14 18 16 14 22 21 24 20 23 20 10 9 11 13 15 15 14 13 14 12 12 10 8 10 5 14 18 22 22 22 23 22 20 21 20 22 22 23 25 25 23 24 22 22 20
13 13 14 17 19 18 14 16 20 19 18 18 19 15 9 9 9 11 14 15 14 12 11 13 11 10 7 4 1 2 10 15 20 21 21 21 21 20 17 20 19 19 24 26 26 26 22 24 21
Wind_Direction
80 55 50 80 122 114 97 48 42 43 55 33 34 43 38 38 35 42 41 65 81 89 118 115 107 86 76 85 78 87 85 86 84 76 56 41 37 27 17 27 25 27 340 359 34 149 164 161 121
346 233 94 89 107 35 41 17 8 22 35 31 343 41 37 30 35 34 36 47 83 97 108 135 119 98 79 70 74 76 79 69 69 68 57 57 30 25 19 12 7 14 1 337 5 40 224 221 231
95 112 117 125 71 113 319 323 294 28 44 27 18 38 30 26 40 30 28 53 76 92 124 137 138 110 71 66 66 65 70 65 57 62 65 41 19 20 5 341 339 27 39 42 42 75 260 336 149
255 281 316 24 316 289 219 315 17 36 21 8 33 38 32 21 35 19 27 52 77 73 121 132 141 154 78 69 70 56 52 54 44 45 51 23 11 9 15 20 53 52 50 48 55 54 55 30 215
275 288 346 245 286 264 285 330 13 44 46 39 355 30 44 22 22 16 14 40 82 58 151 131 108 163 55 57 64 51 38 33 25 22 20 29 16 12 25 44 52 63 38 43 50 71 111 75 173
260 277 275 293 244 242 273 323 25 28 22 12 350 337 1 26 5 11 348 34 74 104 222 109 112 149 148 40 46 38 31 11 2 15 28 37 23 28 31 35 40 59 49 52 65 75 98 67 71
259 287 299 91 77 92 151 47 29 34 40 36 358 348 356 39 40 24 16 36 79 96 139 169 119 129 135 20 45 28 13 13 44 50 44 29 28 43 34 37 40 50 54 55 69 73 65 83 71
278 302 313 53 86 58 75 119 50 348 20 298 290 342 348 13 37 8 2 19 90 119 133 136 131 153 144 45 26 11 359 21 57 71 49 39 40 41 39 41 57 51 50 58 60 67 59 57 60
218 349 38 55 61 68 76 50 35 21 330 215 17 313 335 341 28 352 322 306 114 161 157 156 158 154 175 152 49 5 1 38 82 107 40 32 35 30 33 38 56 56 47 56 68 70 70 68 60
101 171 65 49 45 56 54 44 32 17 5 336 320 299 298 285 284 278 289 315 230 191 186 187 189 176 184 182 144 49 35 80 134 188 359 27 31 43 19 19 39 61 53 47 61 74 93 93 61
169 96 70 62 40 60 59 52 47 42 28 20 30 6 316 285 283 277 267 278 234 214 208 219 201 190 184 192 167 129 66 79 139 214 356 23 32 34 30 58 39 35 57 35 46 71 116 135 90
147 111 112 45 34 41 54 50 42 32 20 351 356 315 311 312 321 284 296 253 242 227 211 223 207 192 199 194 183 171 339 142 196 249 349 33 25 25 33 23 26 40 17 30 52 66 107 139 150
116 109 89 47 47 24 45 51 49 37 19 7 337 353 342 350 343 323 304 283 254 249 235 223 227 203 198 201 201 211 246 196 204 255 308 358 17 17 24 9 28 10 17 289 25 65 67 195 159
125 92 50 24 43 37 48 51 44 26 23 13 357 343 334 323 332 319 288 283 274 258 246 259 221 223 208 208 214 217 225 211 169 248 243 322 360 26 9 25 8 5 341 277 140 121 59 196 154
165 178 34 15 36 37 54 44 37 26 21 6 7 338 291 328 306 284 256 256 256 270 236 251 241 210 223 219 212 208 218 197 158 234 260 220 320 15 358 360 7 29 31 140 144 117 72 26 73
338 27 19 353 41 50 53 23 26 21 11 6 5 357 272 278 310 239 254 248 239 244 249 251 234 237 230 213 213 208 209 210 196 222 230 248 294 288 348 309 317 347 34 45 121 140 147 236 199
303 328 296 288 309 31 358 4 15 359 357 1 8 2 306 256 251 291 239 251 230 233 229 242 238 233 231 216 218 206 211 221 212 223 237 244 218 236 257 25 16 12 41 15 39 58 164 49 232
269 303 274 286 316 9 339 350 356 351 354 351 6 18 359 330 323 300 271 248 247 237 245 233 238 228 234 235 223 214 219 229 231 226 248 241 246 225 250 246 263 315 57 347 337 355 74 97 68
279 284 234 260 323 355 335 17 337 350 357 345 348 357 8 4 354 322 342 260 248 252 245 235 239 235 232 240 235 223 229 226 232 225 241 252 250 246 247 255 243 256 258 274 295 316 17 37 75
271 231 235 281 349 351 31 353 327 342 356 356 349 342 353 350 338 331 338 297 263 246 251 239 231 233 234 237 242 233 233 233 230 232 233 243 241 249 243 248 238 232 241 247 266 276 310 4 359
248 233 248 360 323 50 349 322 337 347 10 7 352 331 330 341 349 341 338 291 263 229 240 245 235 229 234 230 233 230 235 236 238 241 243 242 245 239 247 245 238 232 222 237 239 267 290 319 330
226 239 213 102 198 7 323 328 346 20 29 31 28 13 336 346 352 355 339 330 320 258 261 246 237 232 232 228 227 229 232 237 243 251 250 249 246 239 240 254 235 232 226 225 228 237 265 279 286
226 212 164 171 225 356 352 334 23 31 7 19 30 24 328 259 354 349 341 321 303 298 288 275 260 239 228 222 227 225 227 235 241 245 253 257 255 248 245 246 231 229 230 226 233 240 250 271 278
223 211 185 202 228 158 55 31 18 9 12 30 27 15 7 331 348 337 339 316 319 318 304 290 275 241 241 240 223 215 220 226 234 238 244 255 260 277 254 234 225 227 227 229 228 236 247 255 266
226 212 198 216 247 278 310 336 2 30 48 21 10 4 357 338 343 351 328 323 342 335 321 307 283 264 240 218 225 218 217 219 227 234 242 252 266 280 241 226 224 225 223 226 229 233 243 255 264
179 188 213 222 255 297 303 307 320 326 341 348 352 356 338 311 332 341 332 330 346 348 342 333 290 268 255 235 229 217 220 218 222 229 236 250 263 282 240 219 225 226 221 221 227 230 237 245 256
184 198 225 247 264 283 294 301 316 325 335 344 2 3 6 25 347 341 345 331 346 352 350 345 11 338 348 202 218 213 214 218 222 226 238 241 250 266 261 232 225 227 229 225 230 234 240 243 248
226 222 242 265 294 300 301 318 320 327 349 347 347 352 3 1 357 353 4 342 343 347 1 2 16 35 33 227 200 207 215 221 221 234 239 239 248 255 259 238 225 226 230 235 236 237 241 246 248
279 265 254 270 292 303 293 319 332 327 337 344 354 351 345 360 354 346 353 356 346 339 350 9 359 345 24 47 149 216 239 216 227 238 242 244 245 253 258 230 227 230 229 236 240 242 243 248 251
273 275 290 300 289 313 296 317 321 321 331 332 345 334 320 331 338 350 339 343 347 337 336 343 6 359 357 8 205 133 205 219 231 238 241 243 241 241 243 218 229 230 232 236 236 240 238 245 253